Location: Chaussy
(49.1219°N, 1.6915°E)
Time: 06:39:15
(UTC+00:00)

Daily predictions for brighter satellites

Satellite Brightness Start Highest point End
(mag) Time Altitude Azimuth Time Altitude Azimuth Time Altitude Azimuth
CZ-4B DEB 4.3 17:58:30 10° SSE 18:03:58 87° WSW 18:09:29 10° NNW
SL-16 R/B 3.9 18:08:06 10° E 18:08:24 10° E 18:08:42 10° E
USA 186 3.9 18:07:36 10° E 18:09:07 13° ENE 18:10:37 10° NE
USA 215 3.5 18:02:49 10° NE 18:09:22 77° NNW 18:15:54 10° WSW
Tsikada Rocket 4.4 18:06:00 10° SSW 18:12:25 74° W 18:18:51 10° N
SL-4 R/B 2.4 18:09:03 10° WNW 18:13:26 66° N 18:18:04 10° E
Cosmos 1844 Rocket 4.4 18:09:47 10° N 18:13:28 17° NE 18:17:08 10° ENE
ARGOS Delta rocket 4.2 18:10:09 10° NNE 18:15:22 50° E 18:20:19 10° S
Timation 2 Rocket 4.2 18:11:04 10° NNW 18:17:30 56° NE 18:23:37 10° SE
SKYMED 3 4.4 18:13:33 10° NNE 18:17:42 81° ESE 18:21:49 10° SSW
BREEZE-M DEB (TANK) 4.3 18:16:45 10° SSW 18:21:10 51° SE 18:37:47 10° ENE
Okean O Rocket 1.8 18:18:06 10° SE 18:22:18 52° ENE 18:26:35 10° N
Cosmos 2219 4.0 18:18:48 10° NW 18:24:25 56° WSW 18:30:01 10° S
Cosmos 1242 Rocket 2.4 18:24:20 10° S 18:27:52 65° E 18:31:24 10° NNE
Spot 1 3.9 18:24:31 10° NNE 18:28:50 76° ESE 18:32:56 10° S
BREEZE M DEB (TANK) 4.3 18:24:53 10° SSW 18:29:14 17° SSE 18:31:25 12° ESE
SL-14 R/B 3.3 18:26:38 10° N 18:30:33 59° ENE 18:34:28 10° SSE
Cosmos 2263 Rocket 2.3 18:26:15 10° NNW 18:31:56 62° ENE 18:37:34 10° SE
Cosmos 2360 4.4 18:28:55 10° SSW 18:34:38 79° WNW 18:40:25 10° NNE
Cosmos 1805 3.2 18:30:51 10° S 18:34:40 65° E 18:38:33 10° NNE
Cosmos 1674 Rocket 3.6 18:30:41 10° N 18:35:02 57° ENE 18:39:23 10° SSE
YAOGAN 1 2.5 18:31:49 10° SSE 18:36:08 84° ENE 18:40:29 10° NNW
Meteor 2-5 Rocket 4.5 18:31:57 10° N 18:36:52 31° ENE 18:41:16 12° SE
SKYMED 2 4.4 18:33:35 10° N 18:37:50 55° WNW 18:42:05 10° SSW
Cosmos 1726 2.4 18:34:54 10° SSE 18:38:22 42° E 18:41:51 10° NNE
COBE Rocket 3.9 18:33:32 10° SSE 18:38:27 87° W 18:43:15 10° NNW
OBJECT-B 1.4 18:38:57 22° E 18:39:31 24° ENE 18:41:40 10° NNE
H-2A R/B 4.2 18:39:28 13° ENE 18:40:05 14° ENE 18:42:06 10° NNE
Cosmos 2082 4.1 18:37:39 10° NNW 18:43:22 70° WSW 18:49:04 10° SSE
IRIDIUM 106 4.4 18:40:38 10° SSE 18:45:42 55° E 18:50:49 10° NNE
USA 267 4.4 18:40:10 10° SSE 18:46:15 40° SW 18:52:22 10° WNW
Cosmos 1766 3.5 18:44:54 10° SSE 18:48:38 45° E 18:52:25 10° NNE
Cosmos 1025 Rocket 4.3 18:47:11 10° NNE 18:50:29 21° ENE 18:51:17 20° E
Cosmos 1697 Rocket 3.3 18:47:02 10° SW 18:52:34 59° WNW 18:58:09 10° NNE
CSL-04 Debris 4.3 18:50:38 10° SE 18:55:53 53° ENE 19:01:07 10° N
Cosmos 2221 Rocket 4.0 18:53:01 10° NNW 18:57:30 66° W 19:02:00 10° S
Cosmos 1975 Rocket 4.0 18:56:04 10° N 18:59:53 27° ENE 19:00:50 25° E
ASTEX 1 4.3 18:55:21 10° N 19:00:11 52° WNW 19:05:01 10° SSW
Cosmos 1092 Rocket 4.4 18:56:19 10° SSE 19:02:06 40° E 19:07:53 10° NNE
Landsat 7 4.5 19:00:02 23° ESE 19:02:11 35° ENE 19:06:27 10° N
IGS 5A 3.8 18:59:48 21° SE 19:02:12 44° ENE 19:06:09 10° N
Cosmos 1378 Rocket 3.7 18:59:50 10° NNW 19:04:15 75° W 19:08:35 10° S
Resurs 01 Rocket 3.0 19:05:25 21° ENE 19:05:46 21° ENE 19:09:07 10° NNE
Cosmos 1733 4.3 19:05:15 10° SSW 19:08:52 45° WNW 19:12:29 10° N
Cosmos 968 Rocket 3.9 19:04:58 10° S 19:09:47 38° ESE 19:14:36 10° NE
ATLAS 2AS CENTAUR R/B 4.5 19:08:29 10° WNW 19:14:39 26° N 19:20:33 10° NE
Cosmos 1470 3.3 19:15:56 36° ENE 19:15:56 36° ENE 19:19:05 10° NNE
Cosmos 1733 Rocket 4.2 19:11:51 10° SSW 19:16:06 46° WNW 19:20:25 10° N
ISS -3.0 19:18:50 10° WNW 19:22:03 43° SSW 19:22:45 37° S
Cosmos 2084 4.0 19:18:42 10° WSW 19:22:24 48° NW 19:25:47 12° NNE
Cosmos 2322 Rocket 4.0 19:19:20 10° SSE 19:27:51 15° NE 19:29:03 10° NE
Ariane Rocket 4.2 19:25:15 24° ENE 19:25:24 24° ENE 19:29:24 10° N
CSL-04 Rocket 3.5 19:21:40 16° SSE 19:25:55 80° ENE 19:31:21 10° NNW
Okean-O 2.5 19:24:10 28° SSE 19:26:28 75° ENE 19:30:55 10° N
Resurs 1-3 3.6 19:26:17 39° SE 19:27:44 62° ENE 19:32:05 10° N
CZ-4 R/B 2.8 19:23:58 10° SSW 19:27:53 39° W 19:31:51 10° NNW
Gbstr 26 Del rocket 4.4 19:21:32 10° SW 19:29:10 70° SSE 19:34:41 23° ENE
SJ-6B 2.6 19:30:23 35° S 19:31:54 82° W 19:35:41 10° NNW
Cosmos 1570 Rocket 3.9 19:26:57 10° NNW 19:32:15 84° ENE 19:34:49 31° SSE
Cosmos 1980 Rocket 2.8 19:27:18 10° SW 19:32:50 57° WNW 19:38:23 10° NNE
Meteor 1-12 Rocket 4.4 19:28:56 10° SSW 19:34:57 84° WNW 19:41:01 10° N
Meteor 2-21 Rocket 4.4 19:29:08 10° SSW 19:35:11 82° W 19:41:17 10° N
Cosmos 1627 Rocket 4.4 19:32:06 10° S 19:38:06 64° E 19:44:10 10° NNE
JB-3 4.2 19:34:13 10° NNE 19:38:17 66° E 19:38:37 63° SE
USA 186 2.5 19:40:04 38° SSW 19:40:58 52° W 19:44:16 10° NNW
deb Chang Zheng 4 3.4 19:41:18 59° ENE 19:41:18 59° ENE 19:45:23 10° N
Cosmos 1428 Rocket 4.3 19:39:21 10° S 19:45:31 79° E 19:51:47 10° NNE
Cosmos 2195 Rocket 4.4 19:39:28 10° S 19:45:40 82° E 19:52:00 10° N
Cosmos 2278 3.9 19:42:26 10° SW 19:48:07 74° WNW 19:53:49 10° NNE
Meteor 1-24 Rocket 3.5 19:43:34 10° NNW 19:48:54 86° W 19:51:25 32° S
Cosmos 1437 Rocket 2.9 19:45:52 10° SSW 19:49:36 67° WNW 19:53:20 10° N
SL-16 R/B 2.1 19:45:46 10° SSW 19:51:20 63° ESE 19:56:58 10° NNE
USA 215 4.0 19:47:18 18° ENE 19:51:59 47° N 19:58:11 10° W
SL-4 R/B 2.4 19:48:32 10° WNW 19:53:02 64° SSW 19:53:27 60° S
Cosmos 2208 Rocket 4.1 19:50:14 10° NNW 19:55:37 81° WSW 19:57:21 45° S
Cosmos 1844 Rocket 2.7 19:52:51 10° NNW 19:58:32 65° ENE 19:59:17 58° E
Okean O Rocket 4.2 19:55:51 10° SW 19:58:58 19° W 20:02:06 10° NW
Meteor 1-22 Rocket 4.1 19:55:32 10° SSW 20:00:55 82° WNW 20:06:33 10° N
USA 81 4.1 19:56:24 10° N 20:01:42 79° W 20:03:45 38° S
Landsat 5 4.3 19:57:28 10° N 20:01:52 54° WNW 20:06:13 10° SSW
Cosmos 2278 Rocket 4.0 19:58:53 10° N 20:02:31 17° NE 20:03:03 17° NE
Cosmos 2026 Rocket 3.8 19:57:06 10° S 20:03:10 88° W 20:09:16 10° N
Cosmos 1782 Rocket 3.8 20:06:54 47° SW 20:07:58 66° WNW 20:12:20 10° N
Cosmos 1553 Rocket 3.9 20:02:03 10° N 20:08:25 73° E 20:09:43 57° SE
MOS 1 4.1 20:08:42 65° SE 20:09:29 78° ENE 20:15:10 10° NNW
OBJECT-B 3.6 20:09:48 13° W 20:09:48 13° W 20:10:56 10° WNW
H-2A R/B 3.1 20:15:56 49° NW 20:15:56 49° NW 20:18:55 10° NNW
Cosmos 2263 Rocket 4.1 20:10:53 10° NW 20:15:25 25° WSW 20:19:57 10° SSW
USA 281 3.8 20:16:22 38° ENE 20:16:52 39° NE 20:22:51 10° NNW
Cosmos 1844 3.5 20:14:33 10° NNW 20:20:06 78° NE 20:20:06 78° NE
MetOp-A 4.4 20:21:56 42° NW 20:21:56 42° NW 20:24:48 10° NNW
Cosmos 1025 Rocket 4.0 20:24:12 10° NNW 20:28:10 44° W 20:28:10 44° W
MetOp-B 4.3 20:31:47 62° NNE 20:31:47 62° NNE 20:36:19 10° NNW
SPOT 1/Viking Rocket 3.6 20:32:06 71° W 20:32:06 71° W 20:37:08 10° NNW
SPOT 3 Rocket 4.4 20:37:48 41° NNE 20:37:48 41° NNE 20:41:17 10° N
Cosmos 1975 Rocket 4.5 20:33:46 10° NNW 20:37:47 34° W 20:37:59 34° W
Cosmos 2360 Rocket 4.5 20:46:44 12° NNE 20:46:44 12° NNE 20:47:13 10° NNE
Resurs 01 Rocket 2.8 20:42:59 41° NW 20:42:59 41° NW 20:46:16 10° NNW
Ariane Rocket 4.1 21:05:27 42° NW 21:05:27 42° NW 21:09:03 10° NNW
Terra 3.8 21:07:10 22° N 21:07:10 22° N 21:08:54 10° N
ATLAS 2AS CENTAUR R/B 4.0 21:01:29 10° NW 21:07:51 31° NNE 21:08:59 29° NE
Cosmos 2322 Rocket 3.2 21:09:30 41° N 21:09:30 41° N 21:13:34 10° NNE
Gbstr 26 Del rocket 4.5 21:08:49 10° W 21:16:51 76° N 21:17:10 75° NNE
S3M 4.5 21:11:11 10° NNW 21:16:36 56° WNW 21:16:36 56° WNW
NOSS 3-4 (A) 4.0 21:12:37 10° NW 21:18:30 63° N 21:18:30 63° N
NOSS 3-4 (C) 4.0 21:12:45 10° NW 21:18:36 62° N 21:18:36 62° N
USA 215 3.9 21:34:39 49° N 21:34:39 49° N 21:40:36 10° WNW
SL-16 R/B 4.0 21:31:00 10° WSW 21:35:53 29° NW 21:40:47 10° NNE
Cosmos 2278 Rocket 3.9 21:42:08 10° NNW 21:44:53 29° NNW 21:44:53 29° NNW
Cosmos 1943 Rocket 4.3 21:52:52 10° NNW 21:54:57 20° N 21:54:57 20° N
USA 281 4.2 22:03:15 40° WNW 22:03:15 40° WNW 22:07:38 10° NNW
Cosmos 2360 Rocket 4.4 22:28:28 20° N 22:28:28 20° N 22:30:48 10° NNE
ATLAS 2AS CENTAUR R/B 4.2 22:52:50 10° NW 22:56:24 31° NNW 22:56:24 31° NNW
